Wind_Speed
24 23 22 23 23 22 21 20 19 20 20 20 19 19 20 20 20 21 22 23 23 24 25 26 26 26 27 28 29 31 32 33 33 33 34 34 34 34 34 36 37 37 38 37 37 36 34 33 32 33 34 35 36 36 35 34 33 33 34 35 37 38 38 38 38 38 38 35 33
23 23 23 23 24 22 21 20 19 20 21 20 20 19 20 20 20 21 22 23 24 25 26 26 26 26 26 28 30 31 32 33 34 34 35 35 35 34 34 36 37 38 38 38 36 35 33 32 32 33 34 35 36 36 35 34 33 33 34 35 36 37 37 37 38 38 37 35 33
22 22 22 22 23 22 21 19 19 20 21 20 20 20 19 20 20 21 22 23 24 24 25 25 25 26 27 30 31 32 32 33 33 34 35 36 35 35 35 36 37 38 38 38 36 35 34 33 31 32 34 35 36 36 35 34 33 32 33 34 34 35 35 36 36 37 35 32 31
22 22 21 22 22 22 21 20 20 20 20 20 20 20 20 20 21 21 21 22 23 23 24 24 25 26 27 29 31 32 32 33 33 34 35 36 35 35 35 36 37 38 38 37 36 35 34 33 31 31 32 34 35 36 35 33 32 32 32 33 33 34 35 35 36 36 35 30 29
22 22 22 22 23 23 23 21 20 20 21 21 20 20 20 21 21 21 21 22 22 23 24 25 25 25 26 27 29 31 32 32 33 34 35 36 35 35 36 37 38 38 38 37 36 36 35 33 31 30 31 33 34 35 35 32 30 31 31 31 32 33 34 35 36 37 35 31 29
22 22 22 22 23 23 23 22 21 21 21 21 21 21 21 22 22 22 22 22 22 23 24 26 26 26 26 28 29 30 31 32 34 34 35 35 35 34 35 37 38 38 37 37 37 36 35 33 30 29 30 32 33 33 32 30 28 29 30 30 31 32 33 34 34 35 34 32 29
24 23 23 22 23 23 23 22 22 22 22 21 21 22 23 23 23 23 23 23 22 22 23 25 27 27 26 27 29 30 31 32 34 35 35 35 35 35 35 37 38 38 37 37 37 36 35 33 30 29 29 30 31 31 30 28 27 28 30 30 31 31 32 32 33 34 33 32 31
24 24 24 23 23 23 24 23 22 22 22 22 22 24 25 24 24 24 23 23 22 22 23 24 27 28 27 27 28 30 32 33 32 33 35 35 35 35 36 37 37 37 37 37 37 36 34 32 31 30 29 29 30 31 31 30 28 28 29 30 30 29 28 30 31 32 32 33 33
24 24 24 24 24 24 24 24 24 23 22 23 24 25 26 26 25 24 24 24 24 23 23 23 25 27 28 28 28 29 31 32 32 32 33 34 35 35 35 35 36 37 36 36 35 34 33 32 31 30 30 31 31 32 33 33 30 29 29 30 29 29 29 30 31 32 32 32 33
24 24 24 24 24 24 24 24 25 25 24 24 25 26 27 28 27 26 25 25 24 24 24 23 24 26 28 29 29 30 31 32 31 31 31 33 34 34 34 33 34 35 35 34 33 33 32 31 31 31 31 32 33 34 34 35 33 32 31 31 30 30 30 31 32 32 32 32 33
25 25 25 24 24 25 25 25 25 25 25 25 26 26 27 29 30 30 28 26 24 25 25 25 25 26 28 30 30 31 31 32 32 31 30 32 33 34 34 33 33 33 33 33 33 32 31 31 31 31 32 33 34 34 34 34 34 33 32 32 31 31 31 32 32 31 31 31 32
26 26 25 25 25 25 25 25 26 26 26 26 27 27 27 29 31 31 30 28 27 27 27 27 27 27 29 30 31 31 32 32 33 32 32 31 33 34 35 34 34 34 34 33 33 32 31 31 32 32 32 32 33 32 32 32 33 33 32 32 31 31 31 32 31 31 30 30 31
28 27 27 27 26 26 26 26 27 27 27 27 28 28 28 28 30 31 31 30 30 29 28 28 28 29 30 30 31 31 32 33 33 33 33 33 33 34 35 35 35 34 34 34 33 32 31 31 32 32 31 31 31 31 32 32 33 32 32 31 31 31 31 31 30 29 29 29 29
30 30 29 29 28 28 28 28 28 28 28 28 29 29 28 28 29 29 30 31 31 31 30 29 29 30 31 32 32 32 33 33 34 34 34 34 34 34 34 35 36 35 35 35 34 33 32 32 32 32 32 32 32 33 33 33 33 33 32 30 30 30 30 29 28 27 27 27 28
31 32 32 31 31 30 29 29 30 29 29 30 29 29 29 28 28 28 29 30 32 32 31 29 29 30 32 33 33 33 33 33 33 34 34 34 34 34 34 34 36 36 36 35 34 34 34 33 33 33 33 33 33 33 33 33 33 33 31 30 29 29 28 28 27 26 26 26 26
32 33 33 32 32 32 32 31 30 30 29 29 29 29 28 28 28 28 29 30 30 30 30 30 30 30 31 32 33 33 33 32 33 33 34 34 34 34 34 34 34 35 35 35 34 34 35 35 35 34 34 34 33 32 32 33 33 32 31 30 29 28 27 26 26 26 25 25 25
33 33 32 32 32 33 33 32 31 30 29 28 28 28 28 27 27 27 28 29 29 29 30 31 31 30 29 30 32 33 33 32 33 33 34 34 35 35 35 34 34 34 34 34 34 34 35 36 35 35 34 33 33 32 31 32 32 31 30 28 27 26 25 25 25 26 26 26 28
32 32 32 33 34 34 34 33 32 30 28 28 27 26 26 26 27 27 28 29 30 30 30 31 31 31 30 30 32 33 33 33 33 33 35 35 35 34 34 34 34 34 34 34 34 34 34 35 35 34 34 33 32 32 31 30 30 29 28 27 26 26 26 26 27 29 30 31 32
32 32 32 33 34 34 34 34 33 31 29 28 27 25 25 27 29 29 29 29 31 32 33 33 33 33 32 32 32 33 33 33 33 33 33 33 32 32 31 32 33 33 33 34 34 33 33 33 33 33 32 31 31 30 29 28 28 28 28 27 27 27 28 29 31 33 34 35 35
34 34 34 34 33 33 33 34 34 33 32 30 29 28 29 31 31 31 31 32 34 35 36 35 34 34 34 33 32 33 33 32 32 31 30 29 29 29 30 30 31 31 31 32 31 31 30 30 30 29 28 28 27 26 26 25 25 26 26 27 28 29 31 33 34 36 37 37 36
37 36 36 36 35 34 33 34 34 34 34 33 34 34 34 33 33 34 36 36 36 36 36 35 35 33 32 31 31 31 31 30 28 28 28 28 28 28 29 29 29 29 29 29 29 28 27 26 26 25 24 25 25 24 24 24 24 24 25 27 30 32 34 35 36 37 37 37 36
38 38 38 37 36 35 34 34 34 34 35 36 36 37 36 35 34 36 37 38 37 35 34 34 33 32 30 29 28 28 28 27 26 25 26 27 27 27 27 27 27 26 26 26 26 26 24 23 23 23 23 23 23 23 23 23 24 25 28 30 33 34 35 36 36 37 37 37 37
39 39 38 37 37 36 35 34 34 34 35 36 37 37 37 36 35 35 34 33 33 32 31 31 31 30 29 28 28 27 27 26 25 25 25 25 25 26 26 26 26 26 26 25 24 23 22 21 21 22 22 22 22 23 23 25 27 29 31 33 33 34 35 36 36 37 37 37 36
38 38 36 35 35 35 35 34 34 34 35 36 37 37 37 37 36 35 32 30 29 28 27 27 28 29 30 30 29 29 29 29 28 27 26 26 26 27 27 27 27 26 26 25 23 23 22 21 21 21 21 22 22 23 25 27 30 31 32 32 32 33 33 34 35 36 36 36 35
37 37 36 34 34 34 34 34 34 35 35 36 37 37 37 37 36 34 32 30 28 27 27 27 27 28 30 31 31 31 31 31 31 30 28 27 28 29 29 28 27 26 25 24 24 24 23 22 22 21 21 22 23 25 28 30 31 32 32 32 32 32 32 32 33 33 34 34 34
36 37 36 35 35 34 33 33 34 35 36 36 36 36 37 37 37 35 33 31 29 28 28 28 27 28 29 30 31 31 32 32 33 32 30 28 28 29 30 28 27 25 24 23 23 23 24 23 23 23 22 23 25 28 30 31 32 33 33 33 32 32 31 30 31 31 32 33 33
34 36 37 36 35 35 35 34 34 34 35 35 35 35 36 36 36 35 34 32 30 29 28 28 28 29 30 31 31 32 33 34 35 34 32 30 29 30 29 29 27 27 26 26 25 24 24 25 24 24 25 26 28 30 31 32 32 32 32 32 32 31 31 30 30 30 31 31 32
33 36 38 38 37 36 37 37 35 35 35 35 35 35 34 34 34 34 33 33 31 29 27 28 28 29 30 31 32 34 35 36 36 35 33 31 30 30 30 29 29 29 29 29 28 27 27 27 27 27 28 29 30 31 32 32 31 30 30 30 30 31 31 30 30 30 30 30 30
33 35 37 38 39 39 38 38 37 37 36 35 34 34 33 33 33 33 33 33 32 30 28 27 27 28 29 31 33 34 35 36 36 35 33 31 30 30 30 30 30 30 31 31 31 30 30 29 29 29 30 30 31 32 32 31 30 29 28 28 29 30 30 30 30 30 30 30 30
33 34 35 37 39 40 39 39 39 38 37 35 33 32 32 32 32 32 33 33 33 32 31 29 28 27 29 31 32 33 34 34 34 33 31 30 29 29 30 30 31 32 33 33 32 31 30 30 30 30 30 31 32 32 32 31 30 29 28 27 28 29 30 30 30 30 30 29 28
31 32 34 36 38 39 40 40 40 39 37 34 32 31 31 32 32 33 33 32 32 32 31 30 29 29 30 31 31 31 31 32 32 31 30 29 29 29 29 30 31 32 33 33 32 31 30 30 30 30 30 30 31 32 33 32 30 30 30 29 29 29 29 29 29 30 29 29 27
30 30 31 33 36 38 40 39 38 37 36 34 33 32 32 32 33 33 32 31 30 30 30 30 29 30 30 30 30 29 29 30 30 29 29 28 28 28 29 30 31 32 33 32 31 30 30 29 30 30 30 30 31 33 34 33 32 32 32 31 30 30 29 28 28 28 29 28 27
30 29 29 30 33 35 37 36 35 34 33 33 33 33 32 32 32 32 31 30 29 29 29 29 29 29 29 28 28 27 26 26 26 26 26 27 28 29 30 30 30 31 32 31 29 28 28 29 30 31 31 31 32 33 34 34 33 32 32 32 31 30 30 29 28 28 28 28 28
31 30 29 29 30 31 31 32 31 30 30 30 31 32 32 32 31 31 31 31 30 29 29 30 30 30 29 27 26 25 24 24 23 23 24 25 27 29 30 29 29 30 30 29 27 27 28 29 31 32 32 32 32 33 34 35 33 31 31 30 30 29 29 29 29 28 28 27 27
31 30 30 29 29 28 27 27 27 27 28 28 30 31 32 32 32 32 31 31 30 29 29 29 29 29 27 26 25 24 23 23 22 22 23 25 27 28 29 28 28 28 28 28 27 27 29 30 32 33 33 32 32 33 34 34 32 31 30 29 29 28 28 28 28 28 27 26 25
30 29 29 29 27 26 25 25 26 26 27 28 30 31 32 33 33 32 31 30 29 29 28 27 26 25 24 23 22 21 22 23 23 23 24 25 27 27 28 27 28 28 28 28 28 28 29 31 32 32 32 32 32 33 33 32 31 30 29 29 28 27 27 27 27 27 26 25 24
28 28 28 27 26 25 25 25 25 25 27 29 31 33 33 33 33 32 30 29 27 27 26 25 23 22 22 22 20 20 21 23 24 24 25 26 27 27 27 27 28 29 30 29 29 30 31 31 31 31 31 31 32 32 31 30 28 27 27 27 26 26 26 26 26 26 25 25 25
26 26 26 26 25 25 24 23 24 25 27 29 32 34 34 32 30 29 28 27 25 25 24 23 21 20 20 20 20 20 21 23 24 25 25 26 26 26 26 26 28 30 31 31 32 32 32 32 31 31 30 31 32 31 29 27 26 25 25 25 24 24 25 25 25 25 25 25 25
24 24 24 24 24 23 23 23 24 25 27 28 29 29 29 28 26 25 26 27 25 24 22 21 20 18 18 19 20 20 21 23 24 25 25 25 24 24 24 25 28 30 31 32 32 32 32 32 31 31 31 31 31 30 28 26 25 24 23 23 22 22 23 23 23 22 23 24 25
21 21 22 21 22 22 22 22 22 23 23 22 21 20 20 21 21 22 23 24 24 22 21 20 20 19 19 19 20 21 22 23 24 25 24 23 23 23 24 25 27 27 28 29 30 31 32 32 32 32 31 31 30 29 26 24 23 22 21 21 20 20 21 22 21 21 21 22 23
17 17 17 18 19 19 19 18 17 16 16 15 14 15 16 17 18 19 19 20 21 21 20 20 21 21 21 21 21 21 22 24 24 24 23 22 22 23 24 24 23 22 22 24 26 27 29 30 31 31 31 30 29 27 25 23 21 20 20 19 19 20 20 20 20 20 21 21 22
Wind_Direction
189 187 185 185 186 186 187 189 190 191 192 193 194 196 199 200 203 205 208 209 209 210 212 213 215 216 216 217 218 219 220 220 220 221 223 224 225 226 227 228 230 231 231 232 232 232 232 231 230 231 234 236 236 236 235 232 229 228 227 228 228 229 229 229 230 231 232 231 231
191 191 191 190 189 189 190 192 194 195 196 197 197 199 201 203 206 208 210 210 211 212 214 214 215 216 217 218 219 220 221 221 222 222 224 225 226 227 227 229 231 232 233 233 233 232 231 230 229 230 232 235 236 235 234 233 230 228 228 229 230 230 230 230 232 233 233 232 232
192 193 193 194 194 194 194 196 198 199 200 201 203 204 205 207 209 211 212 212 213 213 214 214 215 217 218 220 221 222 222 222 223 224 225 226 226 227 228 229 231 233 234 234 233 232 231 230 229 229 231 233 235 235 234 233 231 229 228 230 230 231 231 231 232 233 233 232 232
194 195 196 197 198 198 199 200 202 202 203 206 208 209 211 212 213 214 214 214 213 213 213 214 215 217 218 220 222 222 223 223 224 225 226 227 227 227 228 230 231 233 234 234 233 232 231 230 228 229 230 233 234 235 234 233 232 230 230 230 231 231 232 232 233 233 233 232 231
197 198 200 201 202 203 204 205 205 206 208 210 211 213 214 215 215 215 215 215 214 214 214 214 215 216 218 219 221 223 224 225 226 227 228 229 228 228 229 230 232 233 234 234 233 232 231 229 228 228 230 232 234 235 235 234 232 231 231 231 231 232 233 233 234 235 234 232 231
201 202 203 205 206 207 209 209 210 210 211 212 212 213 214 215 215 215 215 215 215 215 216 216 216 216 218 220 222 223 224 226 227 228 229 230 229 229 230 231 232 233 233 233 233 233 231 229 227 228 230 232 233 235 235 234 231 231 232 232 232 233 233 234 235 235 235 233 232
205 205 206 208 209 210 211 212 213 213 213 213 212 212 213 214 215 215 215 215 215 216 217 217 218 218 219 220 222 224 225 225 228 229 230 230 230 230 230 232 233 233 233 233 233 233 231 229 228 228 230 231 233 234 234 231 230 230 232 232 233 233 234 234 235 236 236 235 233
208 208 209 209 210 212 213 214 214 213 214 214 213 213 213 214 214 215 215 216 216 217 218 219 219 219 219 219 222 224 225 226 226 228 230 230 231 231 231 232 233 233 233 234 234 233 231 230 229 229 230 231 232 233 233 231 229 230 231 233 234 233 232 233 234 235 236 236 235
209 210 211 211 212 212 214 215 215 214 214 215 216 215 215 215 214 215 215 216 217 218 219 220 220 220 219 219 221 223 225 226 226 227 229 230 230 230 231 232 232 233 233 233 233 232 231 230 229 230 231 231 232 234 234 233 230 229 230 232 233 233 233 233 234 236 237 237 237
211 211 212 212 213 214 214 215 217 217 217 217 218 218 217 217 217 216 216 217 217 218 218 219 220 220 220 221 222 223 225 226 227 227 228 229 230 230 229 230 231 232 232 231 231 230 229 228 228 230 231 232 233 234 235 235 232 230 230 231 232 232 233 234 235 236 237 238 238
212 212 213 213 214 214 215 216 218 218 219 219 220 220 219 220 219 219 219 219 219 219 219 220 220 220 221 222 223 224 225 226 227 226 226 228 230 230 230 230 230 230 230 230 229 228 227 227 228 229 230 232 232 233 234 234 233 230 229 230 230 231 231 234 235 236 237 238 239
213 214 214 215 215 215 215 216 218 219 219 220 221 221 221 221 222 222 221 221 221 221 222 222 221 221 223 224 224 225 226 226 227 227 227 227 229 230 231 230 230 230 230 229 228 226 226 226 228 229 229 231 231 231 231 231 231 229 228 229 229 229 230 232 234 234 235 236 237
214 215 216 216 216 216 216 216 219 220 220 220 221 221 222 222 223 223 222 222 222 223 224 223 223 223 224 224 225 225 225 226 226 226 226 227 228 229 230 230 230 230 229 229 227 226 225 226 227 227 227 228 229 229 229 229 228 227 226 227 227 228 229 231 232 232 233 234 234
214 215 216 216 216 216 216 216 219 220 221 221 221 221 222 222 223 222 222 222 223 224 224 224 224 224 225 225 225 225 225 225 225 225 226 226 227 228 229 230 230 229 229 228 227 226 226 227 227 227 226 226 227 228 229 228 227 227 226 225 226 228 229 230 230 230 231 231 232
214 215 216 216 216 215 215 216 219 220 221 222 222 222 222 224 224 222 221 222 223 224 224 224 224 225 226 226 225 225 225 224 225 225 225 225 226 227 228 229 229 229 229 228 227 227 227 227 227 227 227 226 227 227 228 228 228 227 226 226 226 227 229 229 229 229 229 231 233
214 215 215 215 215 216 216 217 219 220 221 222 222 222 222 223 224 223 222 222 224 224 224 224 224 225 226 226 225 225 224 224 224 225 225 225 226 226 227 228 228 228 228 227 227 227 227 228 228 227 227 226 226 226 226 227 227 227 227 227 227 228 229 230 229 229 231 234 236
215 215 215 214 214 215 217 218 219 220 221 222 221 222 223 223 224 224 223 223 223 224 224 225 225 225 225 225 225 224 224 223 224 225 225 226 226 226 226 227 227 227 227 226 226 226 227 228 227 227 227 226 225 225 225 226 226 226 226 226 226 228 229 231 232 235 238 241 243
217 217 216 216 215 216 217 218 219 220 221 222 222 222 222 222 223 224 224 224 224 224 225 225 225 225 224 224 225 224 223 222 223 224 226 227 227 227 227 227 228 228 228 227 227 227 227 227 227 226 225 225 225 225 224 225 225 225 225 225 226 229 232 235 239 242 245 247 248
218 218 217 217 217 217 217 218 219 220 221 221 222 222 222 223 224 225 225 225 225 225 225 226 226 225 225 224 224 223 223 222 223 224 226 228 229 228 228 229 230 230 229 229 228 228 227 227 226 225 224 224 223 223 222 221 221 222 224 227 231 235 239 241 244 245 247 247 247
219 219 219 219 218 218 218 218 219 220 221 222 224 224 223 224 225 226 226 226 227 227 227 226 225 225 224 223 223 222 222 222 222 223 225 227 229 230 231 231 231 231 230 230 229 228 227 226 225 223 221 219 218 217 216 216 217 220 224 230 237 242 244 244 244 244 244 244 243
219 219 219 219 219 218 218 218 218 219 220 222 223 223 223 224 226 227 227 228 228 227 226 225 224 223 222 221 220 220 220 221 221 223 226 230 231 232 232 232 231 231 230 230 229 227 226 224 222 218 215 213 212 211 210 211 214 220 228 236 242 245 245 244 243 242 241 240 239
220 220 220 220 220 219 218 217 217 218 219 221 222 223 223 225 226 227 228 230 229 228 226 225 224 222 219 217 216 216 218 220 222 225 229 233 235 235 235 234 232 230 229 228 227 225 222 219 216 212 209 207 207 207 209 212 218 227 235 241 244 245 245 243 242 240 239 237 236
221 221 221 221 220 219 218 217 217 217 218 220 222 223 225 226 227 228 229 230 230 230 229 227 225 222 219 217 216 216 218 221 225 228 231 235 237 238 237 235 232 229 227 226 224 220 215 212 209 206 205 204 205 209 215 222 229 234 238 241 243 244 243 243 241 239 237 235 235
220 220 220 220 220 219 219 218 217 217 218 219 221 222 224 225 227 229 230 231 232 231 230 228 227 224 222 220 219 219 220 222 225 227 231 236 240 241 239 235 232 229 227 225 221 216 210 205 203 202 201 203 209 217 225 232 235 236 237 238 239 241 242 242 241 238 236 235 235
219 219 219 219 219 219 218 218 218 218 219 220 220 222 223 224 226 228 229 230 231 231 230 228 227 224 221 219 219 219 220 220 220 222 227 235 244 244 240 236 233 230 228 227 223 217 212 205 201 199 201 208 219 228 234 236 237 237 237 237 238 239 240 240 239 237 236 235 236
220 219 219 219 219 219 219 218 218 219 220 220 221 222 223 225 226 227 228 229 230 230 230 228 225 221 218 216 215 216 217 218 218 219 224 232 239 241 238 233 231 230 228 225 222 217 212 206 203 203 208 218 227 232 235 237 237 237 237 238 239 239 239 238 237 236 236 236 236
220 219 219 219 219 220 220 220 220 220 220 221 221 222 223 225 226 227 228 228 229 229 229 227 224 220 216 214 213 214 216 217 218 220 224 230 233 233 230 226 224 224 224 222 219 214 210 208 207 210 217 226 232 234 236 237 237 238 238 238 239 238 238 237 236 235 235 235 236
220 220 220 219 219 219 221 222 222 221 221 221 221 222 223 224 225 226 227 227 228 228 227 225 222 219 215 213 213 213 215 216 217 220 223 226 227 225 221 220 220 221 221 219 216 213 211 210 212 219 227 234 236 237 238 238 239 239 239 238 238 238 237 236 235 234 233 233 234
221 220 220 219 219 219 221 222 223 223 223 223 223 223 224 225 225 226 226 226 226 226 225 223 221 217 213 213 213 213 213 214 217 220 222 223 221 218 216 216 218 219 219 217 214 212 211 213 219 227 235 239 239 239 239 239 239 239 238 237 237 237 236 235 234 232 231 231 232
221 221 220 220 220 220 221 222 223 225 225 225 224 224 224 225 225 226 226 226 226 226 225 223 219 215 213 214 213 212 212 214 217 221 222 220 217 215 213 214 215 217 217 214 210 209 211 216 225 234 240 242 242 240 239 239 238 237 236 236 237 236 235 234 232 231 230 229 229
222 221 221 221 221 222 222 223 224 225 226 226 226 225 225 225 226 226 226 225 225 225 224 223 219 217 216 216 214 213 214 217 221 223 223 219 215 213 212 212 212 212 211 209 207 208 214 222 231 238 243 244 243 241 240 238 237 236 236 236 236 236 235 233 231 230 228 228 228
223 222 222 222 223 224 224 225 225 225 226 226 227 226 226 227 227 227 226 225 224 223 222 221 219 218 217 216 215 215 217 219 221 221 219 214 210 208 208 208 207 206 204 204 206 211 219 228 236 242 245 246 245 243 241 238 237 236 236 236 236 235 234 232 230 229 228 227 227
226 224 223 223 225 226 227 226 225 224 224 225 226 227 228 228 228 227 227 226 224 222 221 219 218 217 216 215 214 214 215 216 216 214 210 205 202 201 200 201 201 200 200 202 209 218 228 237 243 246 247 247 247 245 243 240 237 236 235 235 236 235 234 232 230 229 228 227 227
228 227 226 226 227 227 228 227 225 224 223 224 225 227 228 229 229 228 228 227 225 222 221 220 219 218 217 215 213 212 212 212 211 208 202 198 195 194 194 194 195 197 200 205 216 228 238 246 251 252 250 248 247 246 244 241 237 235 234 235 235 235 234 232 230 229 229 228 227
228 228 228 228 228 228 227 226 224 222 221 222 223 226 227 228 229 228 226 225 223 222 221 220 220 219 217 214 213 211 209 208 206 202 197 193 191 190 189 190 192 197 204 213 225 236 245 251 254 254 253 250 247 245 243 241 238 235 235 234 234 233 232 231 230 229 229 228 228
228 227 227 228 228 227 226 224 222 220 219 219 221 224 226 227 227 227 226 223 221 220 219 218 217 215 213 212 210 208 206 203 200 196 192 189 187 187 187 190 194 202 211 220 232 242 248 251 252 253 251 249 246 244 243 241 238 236 235 234 233 232 231 230 229 229 228 228 228
227 227 226 227 226 226 225 223 220 218 218 219 221 223 224 226 227 227 225 222 219 217 216 214 212 209 208 207 203 201 200 200 195 190 187 185 184 185 188 193 201 209 218 228 240 248 250 250 250 249 248 245 243 242 242 240 238 236 235 233 232 231 230 229 229 229 229 228 229
227 227 226 226 226 225 224 222 220 219 219 221 223 224 225 225 226 226 225 221 216 214 212 209 205 202 200 197 194 192 193 194 192 187 183 181 183 187 193 201 210 218 226 235 244 248 248 247 247 246 245 243 243 242 241 239 237 235 234 232 231 230 230 230 229 230 230 230 231
228 228 227 226 226 226 226 224 222 222 223 225 225 226 226 225 225 225 224 221 217 213 209 204 200 194 189 185 184 184 186 187 188 185 182 182 188 196 204 212 219 225 230 234 238 240 242 242 243 243 244 245 245 243 241 238 236 234 232 230 229 229 229 229 229 230 231 232 234
231 231 230 229 229 229 229 227 226 226 227 226 225 225 224 223 223 223 222 220 215 209 202 197 194 190 186 183 181 179 178 179 182 184 187 191 200 209 216 222 224 226 228 230 232 234 236 238 239 241 244 247 247 245 240 235 234 232 230 228 227 226 226 227 228 228 230 232 234
234 233 232 231 230 230 229 226 225 225 224 222 220 219 219 218 218 217 215 211 205 199 192 187 185 185 185 184 181 176 173 174 180 187 195 201 208 213 216 218 220 222 225 228 230 232 234 236 239 243 246 249 248 244 238 232 230 229 228 226 225 224 224 225 226 227 228 230 232
Height
772 773 775 777 778 779 780 782 782 784 785 786 787 788 790 791 792 793 794 795 796 797 798 799 800 801 802 803 803 804 805 806 807 808 809 810 811 812 813 814 815 816 817 818 819 820 821 822 823 823 823 824 824 825 826 826 827 828 828 828 828 829 829 830 830 831 831 832 833
771 772 774 775 777 778 779 781 782 782 784 785 786 787 788 789 791 792 793 794 795 796 797 798 799 800 801 801 802 802 803 804 805 806 807 808 809 810 811 812 813 814 815 816 817 818 819 820 821 821 821 821 822 822 823 824 825 826 826 826 826 827 827 828 828 829 830 831 832
770 772 773 774 775 777 778 779 780 781 782 783 785 786 787 788 789 790 791 792 793 794 795 796 797 798 799 799 800 801 802 803 804 805 805 806 807 809 810 810 811 812 813 814 815 816 817 818 819 819 819 819 819 820 820 821 822 823 823 824 824 825 825 826 826 827 828 829 830
769 771 772 773 774 775 776 777 778 780 781 782 783 784 786 787 788 789 790 791 792 793 793 794 795 796 797 797 798 799 800 801 802 803 804 805 806 807 808 808 809 810 811 812 813 814 815 816 816 817 816 816 817 817 818 819 820 821 821 822 822 823 823 823 824 824 825 827 828
768 769 770 771 772 773 775 776 777 778 779 780 782 783 784 785 786 787 788 789 790 791 791 792 793 794 795 796 797 797 798 800 801 801 802 803 804 805 806 806 807 808 809 810 811 811 812 813 814 815 815 814 815 815 816 817 818 819 819 820 820 820 821 821 821 822 823 825 826
767 768 769 770 771 772 773 775 776 777 777 779 780 781 782 783 785 786 787 787 788 788 789 790 792 792 793 794 795 796 797 798 799 799 800 801 802 803 804 804 805 806 807 807 808 809 810 811 812 813 813 812 813 813 814 815 816 817 817 817 818 818 818 819 819 820 821 822 823
765 766 767 769 770 771 772 773 774 775 776 777 778 779 780 782 782 783 784 785 786 787 788 789 790 791 792 793 793 794 795 796 797 797 798 799 800 801 802 802 803 804 805 805 806 807 808 809 810 811 811 811 811 811 812 813 814 815 815 815 815 816 816 817 817 818 819 820 821
763 765 766 767 768 769 770 771 772 774 775 775 776 777 778 779 780 782 782 784 785 786 786 787 788 789 790 791 791 792 793 794 795 796 796 797 798 799 799 800 801 802 802 803 804 805 806 807 808 809 809 809 809 809 809 811 811 812 812 812 812 813 814 815 815 816 816 817 818
762 763 764 765 766 767 768 770 771 772 772 773 774 775 776 777 778 780 781 782 782 783 785 785 786 787 787 789 789 790 791 792 792 793 794 795 796 797 797 798 798 799 800 801 802 802 804 805 806 806 806 806 806 806 806 807 808 809 809 810 810 811 811 812 812 813 814 815 816
759 761 762 763 764 766 767 768 769 770 771 771 772 773 774 775 776 777 778 779 780 781 782 783 783 784 785 786 787 788 788 789 790 791 792 792 793 794 795 796 796 797 797 798 799 800 801 802 803 803 803 803 803 803 803 804 805 806 806 807 807 808 808 809 810 811 811 812 813
757 759 760 761 762 764 765 766 767 768 769 769 770 771 772 773 774 775 776 777 778 779 780 780 781 782 783 783 784 785 786 787 788 789 790 790 790 791 792 793 793 794 795 796 797 798 799 799 800 800 800 800 800 801 801 802 802 803 804 804 805 806 806 806 807 808 809 810 811
756 757 758 759 761 762 763 764 765 766 767 767 768 769 770 771 771 772 774 775 776 776 777 778 779 779 780 781 782 782 783 784 785 786 787 787 787 788 789 790 791 791 792 793 794 795 796 796 797 797 797 797 798 798 799 799 800 801 802 802 802 803 804 804 805 806 807 808 809
753 755 756 757 759 760 761 762 763 763 764 765 765 766 767 768 769 770 771 772 773 773 774 775 776 777 777 777 778 779 780 781 782 782 783 784 784 785 786 787 788 788 789 790 791 792 792 793 793 794 795 795 795 796 796 797 797 798 799 800 801 801 802 802 803 805 806 806 807
751 752 754 755 756 757 758 759 760 761 761 762 762 763 764 765 766 767 768 769 770 770 771 772 773 773 774 774 775 776 776 777 778 778 779 780 781 782 782 783 784 786 787 787 788 789 789 790 790 791 792 792 792 793 793 794 795 797 797 798 799 800 801 802 803 804 805 805 806
749 750 751 752 753 754 755 756 757 757 758 758 759 760 762 763 764 764 765 766 766 767 768 769 770 770 770 771 771 772 773 774 774 775 776 777 778 779 780 780 781 782 783 784 785 786 786 787 787 788 789 790 790 791 792 793 794 795 796 797 798 799 800 801 802 803 803 804 805
746 746 747 749 750 751 752 752 753 754 755 756 757 758 759 760 761 762 762 763 764 765 766 766 767 767 767 767 768 769 770 771 772 772 773 774 775 776 777 778 778 779 780 781 782 783 783 784 784 785 786 787 788 789 790 791 792 793 795 796 797 798 799 800 801 802 802 803 804
742 743 744 746 746 747 747 749 750 751 752 753 754 755 757 757 758 759 760 760 761 762 762 762 763 764 765 765 765 767 767 768 769 769 770 770 771 772 773 775 775 776 777 778 779 780 781 781 782 783 784 785 786 787 788 789 790 792 794 795 797 798 799 800 801 801 802 802 802
739 740 741 742 742 742 744 746 747 748 749 751 752 753 754 755 756 757 757 757 757 758 759 759 760 761 762 762 762 763 764 765 766 766 767 767 769 770 772 772 773 774 775 776 777 777 778 779 780 781 782 784 785 786 787 788 789 792 794 795 797 797 798 799 800 800 800 800 799
736 737 738 738 739 740 741 742 744 746 747 748 750 751 752 752 753 753 754 754 754 754 755 756 756 757 758 758 759 760 761 762 763 764 765 766 768 769 771 771 772 773 774 774 775 776 777 778 779 780 782 783 784 785 786 787 789 791 793 795 796 797 797 797 797 797 796 796 795
732 733 734 735 736 737 739 740 741 742 744 745 747 749 749 748 748 749 750 751 750 750 751 751 752 753 754 755 756 757 758 760 761 762 764 766 767 769 769 770 771 772 773 773 774 775 777 777 778 779 781 782 783 785 786 787 789 791 792 794 794 794 794 793 793 793 792 792 792
728 729 730 732 733 735 736 737 738 739 741 742 742 743 743 743 745 746 745 745 745 746 747 747 748 750 751 753 754 756 757 758 761 762 764 766 767 767 768 769 770 771 772 772 773 775 776 777 778 779 780 782 783 784 786 787 789 790 791 792 791 791 790 790 790 790 789 789 789
724 725 727 728 730 731 732 734 735 737 738 738 739 739 739 740 740 740 741 742 743 744 744 745 746 748 750 752 753 754 756 758 760 762 764 765 766 767 767 768 769 770 771 771 772 774 775 777 777 778 780 781 782 784 785 786 787 788 788 788 787 787 787 787 787 787 787 787 787
721 722 724 725 727 728 730 731 732 733 735 735 736 737 737 737 738 738 739 740 742 742 743 744 745 747 748 750 752 753 755 757 760 762 763 764 765 766 767 767 768 768 769 770 772 773 775 776 777 777 779 780 782 783 784 785 785 784 784 784 784 784 785 785 785 785 785 785 785
717 719 721 722 724 726 727 728 729 730 731 732 732 733 734 735 736 737 738 739 740 741 742 743 744 745 747 748 750 752 753 755 757 758 760 762 764 765 765 766 766 767 768 769 771 772 773 774 776 777 778 780 781 782 783 782 781 781 781 781 781 782 782 782 782 782 782 783 783
714 716 718 720 721 723 724 726 726 727 727 728 729 730 731 732 733 735 736 737 738 739 740 741 742 743 744 746 747 749 751 752 752 753 755 757 760 762 763 764 765 766 767 769 770 771 772 773 774 776 777 779 780 780 780 779 778 778 778 778 778 779 779 780 780 780 780 781 781
712 714 715 717 719 720 722 722 723 723 724 725 726 727 728 729 731 732 734 735 736 737 738 739 740 741 742 743 745 747 748 749 749 749 750 752 755 758 760 762 763 765 767 768 770 770 771 772 773 774 776 777 778 777 777 776 775 775 775 775 776 776 777 777 777 778 778 778 779
710 711 712 714 716 717 718 719 720 720 721 722 723 725 726 727 729 731 732 733 734 735 736 737 737 738 739 741 742 744 745 746 746 746 746 747 750 753 757 759 761 763 764 766 768 769 770 770 771 772 774 775 775 775 774 773 773 773 773 773 773 774 774 774 775 775 776 776 777
707 708 709 710 712 713 714 715 717 717 718 719 720 722 723 725 727 729 730 731 732 733 734 735 735 736 737 738 739 740 741 742 743 743 744 744 746 749 753 757 759 760 761 763 765 767 768 769 770 771 772 772 772 772 772 771 771 771 771 771 771 771 771 772 772 772 773 774 774
703 704 705 707 708 709 710 712 713 713 714 716 717 720 722 724 725 726 727 728 730 731 732 732 733 734 735 735 736 737 738 739 740 741 742 743 744 747 749 753 756 757 758 759 762 764 765 767 768 769 770 770 770 770 770 769 769 769 769 769 769 769 769 769 769 770 770 771 771
701 702 702 703 704 705 707 708 709 710 712 714 716 718 720 721 722 723 724 725 727 727 728 729 731 732 732 732 733 735 736 737 738 739 741 742 744 747 748 750 752 753 755 756 758 761 763 765 766 767 767 767 767 767 767 767 767 767 767 767 766 766 766 766 767 767 768 768 769
698 699 700 701 701 702 703 703 705 707 710 712 714 716 717 718 719 720 721 722 723 725 726 727 728 729 729 730 732 733 734 735 737 738 740 742 744 747 748 749 750 750 752 753 756 759 761 762 763 763 764 764 764 764 764 764 764 763 763 763 763 763 764 764 764 765 765 766 767
696 697 698 698 698 699 699 701 703 706 708 711 712 713 714 715 716 717 718 720 722 723 724 725 726 726 727 728 730 731 732 734 735 736 738 741 743 745 747 747 748 748 750 752 755 757 759 760 760 760 761 761 762 762 762 761 761 761 761 761 761 761 761 762 762 762 763 764 765
694 695 696 696 696 696 697 699 701 704 707 708 710 711 711 712 713 715 717 718 720 721 722 722 723 724 725 726 728 729 731 732 733 735 737 739 741 743 744 745 746 747 749 751 754 756 757 757 757 757 757 758 758 758 759 759 759 758 758 758 758 759 759 759 760 760 761 762 762
691 692 693 693 693 694 696 698 700 702 704 706 707 708 709 710 711 712 714 715 717 718 719 719 720 721 722 724 726 728 729 731 732 733 735 737 738 740 742 743 745 747 748 751 753 755 755 755 755 754 754 755 755 756 756 757 757 757 757 757 757 757 757 757 758 758 759 759 760
688 689 690 691 692 693 695 696 698 700 702 703 705 706 707 707 708 709 710 712 714 715 717 717 718 720 722 723 725 727 728 729 730 731 733 734 736 738 740 742 744 746 748 750 752 752 752 752 752 751 752 752 753 753 754 754 755 755 755 755 755 755 755 755 756 756 757 757 758
686 687 688 689 690 691 693 694 696 697 699 700 702 702 704 704 705 706 708 710 712 713 714 716 717 719 721 723 724 725 726 727 728 729 731 733 735 737 739 742 744 746 747 748 749 748 748 748 748 748 749 750 751 751 752 752 753 753 753 753 753 753 753 753 753 754 755 756 756
684 685 686 687 688 690 691 692 693 695 696 697 698 699 700 702 703 704 706 708 710 712 713 714 716 717 719 721 722 723 724 725 727 728 730 732 734 736 739 741 742 743 744 744 744 744 744 744 745 746 747 748 749 749 750 750 751 751 752 752 752 752 752 752 752 752 753 753 754
682 684 685 686 687 688 690 691 692 693 693 694 695 696 697 699 702 703 705 707 708 710 712 713 715 716 718 719 721 722 723 724 726 727 729 731 733 735 737 739 740 740 740 740 740 741 742 742 743 745 746 747 747 747 748 749 749 750 750 750 751 751 750 751 751 751 751 752 752
682 683 684 685 687 688 689 690 691 691 692 692 694 695 697 699 701 703 704 705 707 709 711 712 714 716 717 718 719 721 722 724 725 726 728 730 732 734 735 737 737 737 737 738 738 739 741 742 743 744 745 746 746 746 746 747 747 748 748 749 749 749 749 749 750 750 750 750 751
681 682 683 685 686 687 688 689 690 691 692 693 695 696 698 699 701 702 703 705 707 708 710 712 713 714 716 717 719 720 722 723 724 726 728 730 732 732 733 734 734 736 737 738 739 740 741 742 742 743 744 744 744 745 745 746 746 747 747 748 748 748 748 748 749 749 749 749 750
681 682 683 685 686 687 688 689 690 691 692 694 695 696 697 698 700 701 702 704 706 707 709 710 711 713 715 717 719 720 722 723 725 726 728 729 731 732 733 734 736 737 738 738 739 740 741 741 742 742 743 743 743 743 744 744 745 746 746 747 747 747 747 747 747 748 748 748 749